Weather History for KFOA - October, 2013

Change the Weather History Date:

Thursday, October 3, 2013

  Actual Average (KEVV) Record (KEVV)
Temperature  
Mean Temperature 75 °F 62 °F  
Max Temperature 84 °F 75 °F 91 °F (1900)
Min Temperature 66 °F 49 °F 31 °F (1974)
Degree Days  
Heating Degree Days 0 5  
Month to date heating degree days 15  
Since 1 July heating degree days 62  
Cooling Degree Days 10 2  
Month to date cooling degree days 6  
Year to date cooling degree days 1372  
Growing Degree Days 25 (Base 50)    
Moisture  
Dew Point 65 °F    
Average Humidity 77    
Maximum Humidity 100    
Minimum Humidity 47    
Precipitation  
Precipitation 0.01 in 0.10 in 1.76 in (1902)
Month to date precipitation 0.31  
Year to date precipitation 34.28  
Snow  
Snow 0.00 in 0.00 in 0.00 in (2002)
Month to date snowfall 0.0  
Since 1 July snowfall 0.0  
Since 1 September snowfall 0.0  
Snow Depth -    
Sea Level Pressure  
Sea Level Pressure 30.00 in    
Wind  
Wind Speed 7 mph (South)    
Max Wind Speed 16 mph    
Max Gust Speed 20 mph    
Visibility 8 miles    
Events Rain    
T = Trace of Precipitation, MM = Missing Value Source: NWS Daily Summary

Daily Weather History Graph

Daily Weather History Graph

Search for Another Location

Airport or City:

Trip Planner

Search our weather history database for the weather conditions in past years. The results will help you decide how hot, cold, wet, or windy it might be!

Date:

Astronomy

Oct. 03, 2013 Rise Set
Actual Time 6:51 AM CDT 6:33 PM CDT
Civil Twilight 6:25 AM CDT 6:59 PM CDT
Nautical Twilight 5:54 AM CDT 7:30 PM CDT
Astronomical Twilight 5:23 AM CDT 8:01 PM CDT
Moon 5:25 AM CDT (10/3) 5:41 PM CDT (10/3)
Length of Visible Light 12h 34m
Length of Day
11h 41m
Waning Crescent, 2% of the Moon is Illuminated
Oct 3
Waning Crescent
Oct 4
New
Oct 11
First Quarter
Oct 18
Full
Oct 26
Last Quarter

Hourly Weather History & Observations

Time (CDT) Temp. Heat Index Dew Point Humidity Pressure Visibility Wind Dir Wind Speed Gust Speed Precip Events Conditions
12:15 AM 67.1 °F - 66.7 °F 99% 30.03 in 5.0 mi South 5.8 mph - N/A   Clear
12:35 AM 67.1 °F - 66.7 °F 99% 30.02 in 7.0 mi South 5.8 mph - N/A   Clear
12:55 AM 67.1 °F - 66.7 °F 99% 30.02 in 7.0 mi South 5.8 mph - N/A   Clear
1:15 AM 66.7 °F - 66.6 °F 99% 30.02 in 5.0 mi South 4.6 mph - N/A   Clear
1:35 AM 66.2 °F - 66.0 °F 99% 30.03 in 5.0 mi South 4.6 mph - N/A   Clear
2:10 AM 66.2 °F - 66.2 °F 100% 30.02 in 4.0 mi South 4.6 mph - N/A   Clear
2:31 AM 66.2 °F - 66.2 °F 100% 30.02 in 4.0 mi South 4.6 mph - N/A   Clear
2:35 AM 66.2 °F - 65.8 °F 99% 30.02 in 4.0 mi South 4.6 mph - N/A   Clear
2:55 AM 66.2 °F - 66.2 °F 100% 30.02 in 4.0 mi South 5.8 mph - N/A   Clear
3:15 AM 66.9 °F - 66.6 °F 99% 30.02 in 4.0 mi South 3.5 mph - N/A   Clear
3:35 AM 67.1 °F - 66.7 °F 99% 30.02 in 4.0 mi South 3.5 mph - N/A   Clear
3:55 AM 67.1 °F - 66.7 °F 99% 30.02 in 4.0 mi South 3.5 mph - N/A Rain Light Rain
4:15 AM 67.1 °F - 66.7 °F 99% 30.02 in 4.0 mi Calm Calm - 0.01 in   Scattered Clouds
4:35 AM 67.1 °F - 66.7 °F 99% 30.02 in 4.0 mi Calm Calm - 0.01 in   Clear
4:55 AM 66.7 °F - 66.6 °F 99% 30.02 in 4.0 mi SSE 3.5 mph - 0.01 in   Clear
5:15 AM 66.9 °F - 66.6 °F 99% 30.03 in 4.0 mi SSE 3.5 mph - N/A Rain Rain
5:35 AM 67.1 °F - 66.7 °F 99% 30.03 in 4.0 mi South 3.5 mph - N/A Rain Light Rain
5:55 AM 67.1 °F - 66.7 °F 99% 30.03 in 5.0 mi SSE 4.6 mph - N/A   Scattered Clouds
6:15 AM 67.1 °F - 66.7 °F 99% 30.03 in 4.0 mi SSE 3.5 mph - N/A   Clear
6:35 AM 67.1 °F - 66.7 °F 99% 30.03 in 5.0 mi SSE 4.6 mph - N/A   Clear
6:55 AM 67.1 °F - 66.7 °F 99% 30.03 in 5.0 mi SSE 4.6 mph - N/A   Clear
7:15 AM 67.1 °F - 66.7 °F 99% 30.04 in 4.0 mi SSE 3.5 mph - N/A   Clear
7:35 AM 67.1 °F - 66.9 °F 99% 30.04 in 5.0 mi SSE 3.5 mph - N/A   Clear
7:55 AM 67.5 °F - 67.3 °F 99% 30.04 in 5.0 mi SSE 4.6 mph - N/A   Clear
8:15 AM 68.4 °F - 67.8 °F 98% 30.05 in 7.0 mi South 4.6 mph - N/A   Clear
8:35 AM 69.3 °F - 68.4 °F 97% 30.04 in 10.0 mi SSE 6.9 mph - N/A   Clear
8:55 AM 69.6 °F - 68.4 °F 96% 30.04 in 10.0 mi SSE 5.8 mph - N/A   Clear
9:15 AM 72.0 °F - 69.1 °F 91% 30.04 in 10.0 mi South 9.2 mph - N/A   Clear
9:35 AM 74.5 °F - 68.5 °F 82% 30.04 in 10.0 mi South 11.5 mph - N/A   Clear
9:55 AM 75.6 °F - 68.7 °F 79% 30.04 in 10.0 mi SSW 10.4 mph 17.3 mph N/A   Clear
10:15 AM 75.7 °F - 67.6 °F 76% 30.04 in 10.0 mi SW 12.7 mph - N/A   Clear
10:35 AM 76.3 °F - 67.5 °F 74% 30.04 in 10.0 mi SW 8.1 mph - N/A   Clear
10:55 AM 78.1 °F - 67.6 °F 70% 30.03 in 10.0 mi SSW 8.1 mph - N/A   Clear
11:15 AM 78.6 °F - 67.8 °F 69% 30.03 in 10.0 mi South 6.9 mph - N/A   Clear
11:35 AM 79.2 °F - 66.7 °F 66% 30.03 in 10.0 mi SSW 11.5 mph 16.1 mph N/A   Clear
11:55 AM 79.2 °F - 66.4 °F 65% 30.03 in 10.0 mi SSW 11.5 mph - N/A   Clear
12:15 PM 80.8 °F 82.8 °F 65.7 °F 60% 30.02 in 10.0 mi SSW 12.7 mph 16.1 mph N/A   Clear
12:35 PM 79.9 °F - 66.2 °F 63% 30.01 in 10.0 mi SSW 10.4 mph - N/A   Clear
12:55 PM 81.1 °F 82.9 °F 65.3 °F 58% 30.00 in 10.0 mi SSW 9.2 mph 17.3 mph N/A   Clear
1:15 PM 83.3 °F 85.1 °F 64.9 °F 54% 29.99 in 10.0 mi SSW 16.1 mph 19.6 mph N/A   Clear
1:35 PM 82.8 °F 84.3 °F 64.4 °F 54% 29.99 in 10.0 mi South 13.8 mph 18.4 mph N/A   Clear
1:55 PM 84.6 °F 86.1 °F 64.4 °F 51% 29.97 in 10.0 mi SSW 13.8 mph 19.6 mph N/A   Clear
2:15 PM 84.2 °F 85.4 °F 63.7 °F 50% 29.97 in 10.0 mi South 12.7 mph 18.4 mph N/A   Clear
2:35 PM 84.7 °F 85.4 °F 62.2 °F 47% 29.96 in 10.0 mi South 13.8 mph 18.4 mph N/A   Clear
2:55 PM 84.2 °F 85.0 °F 62.4 °F 48% 29.96 in 10.0 mi South 15.0 mph 18.4 mph N/A   Clear
3:15 PM 82.9 °F 83.7 °F 62.2 °F 49% 29.96 in 10.0 mi SSW 11.5 mph 19.6 mph N/A   Clear
3:35 PM 84.6 °F 85.4 °F 62.6 °F 48% 29.95 in 10.0 mi SSW 11.5 mph 19.6 mph N/A   Clear
3:55 PM 83.7 °F 84.5 °F 62.6 °F 49% 29.95 in 10.0 mi South 12.7 mph 17.3 mph N/A   Clear
4:15 PM 83.7 °F 84.1 °F 61.7 °F 47% 29.94 in 10.0 mi South 12.7 mph - N/A   Clear
4:35 PM 83.3 °F 84.3 °F 62.6 °F 50% 29.94 in 10.0 mi South 11.5 mph - N/A   Clear
4:55 PM 83.5 °F 84.1 °F 62.1 °F 48% 29.94 in 10.0 mi South 12.7 mph 18.4 mph N/A   Clear
5:15 PM 82.8 °F 83.4 °F 61.5 °F 49% 29.95 in 10.0 mi SSW 9.2 mph - N/A   Clear
5:35 PM 82.0 °F 82.8 °F 61.5 °F 50% 29.94 in 10.0 mi South 12.7 mph 16.1 mph N/A   Clear
5:55 PM 81.0 °F 81.8 °F 61.5 °F 51% 29.94 in 10.0 mi South 11.5 mph - N/A   Clear
6:15 PM 78.4 °F - 61.9 °F 57% 29.95 in 10.0 mi South 6.9 mph - N/A   Clear
6:35 PM 76.6 °F - 62.1 °F 61% 29.96 in 10.0 mi South 5.8 mph - N/A   Clear
6:55 PM 75.7 °F - 62.8 °F 64% 29.96 in 10.0 mi South 5.8 mph - N/A   Clear
7:15 PM 75.7 °F - 63.1 °F 65% 29.97 in 10.0 mi SSE 4.6 mph - N/A   Clear
7:35 PM 73.9 °F - 63.5 °F 70% 29.97 in 10.0 mi SSE 5.8 mph - N/A   Clear
7:55 PM 73.9 °F - 63.5 °F 70% 29.97 in 10.0 mi South 5.8 mph - N/A   Clear
8:15 PM 74.5 °F - 63.5 °F 68% 29.98 in 10.0 mi South 5.8 mph - N/A   Clear
8:35 PM 74.3 °F - 63.5 °F 69% 29.99 in 10.0 mi South 6.9 mph - N/A   Clear
8:55 PM 74.3 °F - 63.5 °F 69% 29.99 in 10.0 mi SSE 6.9 mph - N/A   Clear
9:15 PM 72.3 °F - 63.9 °F 75% 29.99 in 10.0 mi South 5.8 mph - N/A   Clear
9:35 PM 71.1 °F - 63.5 °F 77% 30.00 in 10.0 mi South 4.6 mph - N/A   Clear
9:55 PM 69.8 °F - 63.1 °F 79% 29.99 in 10.0 mi SSE 6.9 mph - N/A   Clear
10:15 PM 70.7 °F - 63.5 °F 78% 30.00 in 10.0 mi South 5.8 mph - N/A   Clear
10:35 PM 70.7 °F - 63.7 °F 78% 30.00 in 10.0 mi South 4.6 mph - N/A   Clear
11:35 PM 70.3 °F - 64.2 °F 81% 29.99 in 10.0 mi South 4.6 mph - N/A   Clear
11:55 PM 70.3 °F - 64.2 °F 81% 29.99 in 10.0 mi South 5.8 mph - N/A   Clear